Tracking 20083 objects as of 12-Dec-2019
HD Live streaming from Space Station
objects crossing your sky now

NADEZHDA 7

Track NADEZHDA 7 now!
10-day predictions
NADEZHDA 7 is classified as:


NORAD ID: 27534
Int'l Code: 2002-046A
Perigee: 969.3 km
Apogee: 1,024.7 km
Inclination: 82.9 °
Period: 104.9 minutes
Semi major axis: 7367 km
RCS: 1.9312 m2 (large)
Launch date: September 26, 2002
Source: Commonwealth of Independent States (former USSR) (CIS)
Launch site: PLESETSK MISSILE AND SPACE COMPLEX (PKMTR)
aabbcc
Your satellite tracking list
Your tracking list is empty




NASA's NSSDC Master Catalog

Two Line Element Set (TLE):
1 27534U 02046A   19345.81629771 +.00000014 +00000-0 -15207-5 0  9992
2 27534 082.9350 288.6432 0037619 103.8110 314.9785 13.72716320862110
Source of the keplerian elements: AFSPC